TimeEDT,TemperatureF,Dew PointF,Humidity,Sea Level PressureIn,VisibilityMPH,Wind Direction,Wind SpeedMPH,Gust SpeedMPH,PrecipitationIn,Events,Conditions,WindDirDegrees,DateUTC
12:15 AM,50.0,28.4,43,30.22,10.0,Calm,Calm,-,N/A,,Clear,0,2013-03-11 04:15:00
12:35 AM,48.2,28.4,46,30.21,10.0,Calm,Calm,-,N/A,,Clear,0,2013-03-11 04:35:00
12:55 AM,48.2,28.4,46,30.21,10.0,SE,3.5,-,N/A,,Clear,130,2013-03-11 04:55:00
1:15 AM,46.4,30.2,53,30.20,10.0,SE,3.5,-,N/A,,Clear,130,2013-03-11 05:15:00
1:35 AM,46.4,26.6,46,30.20,10.0,Calm,Calm,-,N/A,,Clear,0,2013-03-11 05:35:00
1:55 AM,44.6,28.4,53,30.20,10.0,Calm,Calm,-,N/A,,Clear,0,2013-03-11 05:55:00
2:15 AM,44.6,28.4,53,30.20,10.0,Calm,Calm,-,N/A,,Clear,0,2013-03-11 06:15:00
2:35 AM,41.0,28.4,61,30.20,10.0,Calm,Calm,-,N/A,,Clear,0,2013-03-11 06:35:00
2:55 AM,41.0,26.6,57,30.20,10.0,Calm,Calm,-,N/A,,Clear,0,2013-03-11 06:55:00
3:15 AM,39.2,26.6,61,30.17,10.0,Calm,Calm,-,N/A,,Clear,0,2013-03-11 07:15:00
3:35 AM,39.2,26.6,61,30.17,10.0,Calm,Calm,-,N/A,,Clear,0,2013-03-11 07:35:00
3:55 AM,41.0,21.2,45,30.16,10.0,Calm,Calm,-,N/A,,Clear,0,2013-03-11 07:55:00
4:15 AM,39.2,28.4,65,30.15,10.0,Calm,Calm,-,N/A,,Clear,0,2013-03-11 08:15:00
4:35 AM,39.2,26.6,61,30.15,10.0,Calm,Calm,-,N/A,,Clear,0,2013-03-11 08:35:00
4:55 AM,37.4,28.4,70,30.14,10.0,Calm,Calm,-,N/A,,Clear,0,2013-03-11 08:55:00
5:15 AM,39.2,26.6,61,30.14,10.0,Calm,Calm,-,N/A,,Clear,0,2013-03-11 09:15:00
5:35 AM,39.2,26.6,61,30.14,10.0,Calm,Calm,-,N/A,,Clear,0,2013-03-11 09:35:00
5:55 AM,39.2,24.8,56,30.13,10.0,Calm,Calm,-,N/A,,Clear,0,2013-03-11 09:55:00
6:15 AM,39.2,28.4,65,30.13,10.0,Calm,Calm,-,N/A,,Clear,0,2013-03-11 10:15:00
6:35 AM,39.2,28.4,65,30.13,10.0,Calm,Calm,-,N/A,,Clear,0,2013-03-11 10:35:00
6:55 AM,39.2,30.2,70,30.14,10.0,Calm,Calm,-,N/A,,Clear,0,2013-03-11 10:55:00
7:15 AM,37.4,32.0,81,30.12,10.0,Calm,Calm,-,N/A,,Clear,0,2013-03-11 11:15:00
7:35 AM,39.2,33.8,81,30.13,10.0,Calm,Calm,-,N/A,,Clear,0,2013-03-11 11:35:00
7:55 AM,39.2,35.6,87,30.13,10.0,Calm,Calm,-,N/A,,Clear,0,2013-03-11 11:55:00
8:15 AM,39.2,37.4,93,30.13,10.0,Calm,Calm,-,N/A,,Clear,0,2013-03-11 12:15:00
8:35 AM,39.2,37.4,93,30.12,10.0,Calm,Calm,-,N/A,,Clear,0,2013-03-11 12:35:00
8:55 AM,42.8,39.2,87,30.13,10.0,Calm,Calm,-,N/A,,Clear,0,2013-03-11 12:55:00
9:15 AM,46.4,42.8,87,30.13,10.0,Calm,Calm,-,N/A,,Clear,0,2013-03-11 13:15:00
9:35 AM,50.0,44.6,82,30.12,10.0,Calm,Calm,-,N/A,,Mostly Cloudy,0,2013-03-11 13:35:00
9:55 AM,53.6,48.2,82,30.12,10.0,Calm,Calm,-,N/A,,Overcast,0,2013-03-11 13:55:00
10:15 AM,55.4,53.6,94,30.13,10.0,Calm,Calm,-,N/A,,Overcast,0,2013-03-11 14:15:00
10:35 AM,55.4,51.8,88,30.13,10.0,Calm,Calm,-,N/A,,Mostly Cloudy,0,2013-03-11 14:35:00
10:55 AM,57.2,53.6,88,30.12,10.0,SSE,3.5,-,N/A,,Mostly Cloudy,150,2013-03-11 14:55:00
11:15 AM,59.0,53.6,82,30.12,10.0,SSE,4.6,-,N/A,,Mostly Cloudy,160,2013-03-11 15:15:00
11:35 AM,60.8,53.6,77,30.11,10.0,SSE,5.8,-,N/A,,Mostly Cloudy,160,2013-03-11 15:35:00
11:55 AM,62.6,53.6,72,30.10,10.0,SSE,5.8,-,N/A,,Scattered Clouds,150,2013-03-11 15:55:00
12:35 PM,64.4,53.6,68,30.08,10.0,South,6.9,-,N/A,,Partly Cloudy,170,2013-03-11 16:35:00
12:55 PM,66.2,51.8,60,30.08,10.0,South,6.9,-,N/A,,Partly Cloudy,180,2013-03-11 16:55:00
1:15 PM,68.0,50.0,52,30.06,10.0,South,4.6,-,N/A,,Partly Cloudy,170,2013-03-11 17:15:00
1:35 PM,69.8,50.0,49,30.06,10.0,South,8.1,19.6,N/A,,Scattered Clouds,180,2013-03-11 17:35:00
1:55 PM,68.0,48.2,49,30.04,10.0,South,5.8,16.1,N/A,,Mostly Cloudy,170,2013-03-11 17:55:00
2:15 PM,68.0,48.2,49,30.03,10.0,South,6.9,17.3,N/A,,Partly Cloudy,180,2013-03-11 18:15:00
2:35 PM,68.0,50.0,52,30.02,10.0,SSE,8.1,-,N/A,,Mostly Cloudy,150,2013-03-11 18:35:00
2:55 PM,71.6,48.2,43,30.00,10.0,SSW,6.9,16.1,N/A,,Scattered Clouds,200,2013-03-11 18:55:00
3:15 PM,68.0,48.2,49,29.99,10.0,South,6.9,-,N/A,,Scattered Clouds,170,2013-03-11 19:15:00
3:35 PM,68.0,48.2,49,29.98,10.0,SSE,4.6,-,N/A,,Mostly Cloudy,150,2013-03-11 19:35:00
3:55 PM,68.0,48.2,49,29.95,10.0,SSE,5.8,-,N/A,,Partly Cloudy,150,2013-03-11 19:55:00
4:15 PM,68.0,50.0,52,29.94,10.0,SE,9.2,18.4,N/A,,Partly Cloudy,140,2013-03-11 20:15:00
4:35 PM,68.0,48.2,49,29.94,10.0,SSE,5.8,18.4,N/A,,Partly Cloudy,160,2013-03-11 20:35:00
4:55 PM,68.0,48.2,49,29.95,10.0,SSE,4.6,-,N/A,,Partly Cloudy,150,2013-03-11 20:55:00
5:15 PM,68.0,46.4,46,29.94,10.0,SSE,6.9,-,N/A,,Partly Cloudy,150,2013-03-11 21:15:00
5:35 PM,68.0,48.2,49,29.93,10.0,South,5.8,-,N/A,,Partly Cloudy,170,2013-03-11 21:35:00
5:55 PM,68.0,48.2,49,29.92,10.0,SSE,5.8,-,N/A,,Partly Cloudy,150,2013-03-11 21:55:00
6:15 PM,66.2,48.2,52,29.90,10.0,SE,3.5,-,N/A,,Partly Cloudy,140,2013-03-11 22:15:00
6:35 PM,66.2,48.2,52,29.88,10.0,SE,5.8,-,N/A,,Clear,140,2013-03-11 22:35:00
7:15 PM,66.2,48.2,52,29.91,10.0,SSE,4.6,-,N/A,,Clear,150,2013-03-11 23:15:00
7:35 PM,64.4,48.2,56,29.91,10.0,SE,6.9,-,N/A,,Clear,140,2013-03-11 23:35:00
7:55 PM,64.4,48.2,56,29.91,10.0,SSE,6.9,-,N/A,,Clear,160,2013-03-11 23:55:00
8:15 PM,64.4,50.0,59,29.92,10.0,South,5.8,-,N/A,,Clear,170,2013-03-12 00:15:00
8:35 PM,64.4,50.0,59,29.92,10.0,Calm,Calm,-,N/A,,Partly Cloudy,0,2013-03-12 00:35:00
8:55 PM,64.4,50.0,59,29.92,10.0,SE,3.5,-,N/A,,Clear,140,2013-03-12 00:55:00
9:15 PM,62.6,51.8,68,29.92,10.0,SE,5.8,-,N/A,Rain,Light Rain,140,2013-03-12 01:15:00
9:35 PM,62.6,51.8,68,29.90,10.0,SE,5.8,-,N/A,,Clear,130,2013-03-12 01:35:00
9:55 PM,62.6,53.6,72,29.91,10.0,SSE,8.1,-,N/A,,Clear,150,2013-03-12 01:55:00
10:15 PM,60.8,55.4,82,29.90,10.0,SE,8.1,-,N/A,Rain,Light Rain,140,2013-03-12 02:15:00
10:35 PM,59.0,57.2,94,29.89,10.0,SE,5.8,-,N/A,Rain,Light Rain,130,2013-03-12 02:35:00
10:55 PM,59.0,59.0,100,29.89,9.0,SSE,5.8,-,N/A,Rain,Light Rain,150,2013-03-12 02:55:00
11:15 PM,57.2,57.2,100,29.89,9.0,SE,4.6,-,N/A,Rain,Light Rain,140,2013-03-12 03:15:00
11:35 PM,57.2,57.2,100,29.88,8.0,SE,5.8,-,0.01,Rain,Light Rain,130,2013-03-12 03:35:00
11:55 PM,57.2,57.2,100,29.88,10.0,Calm,Calm,-,0.01,Rain,Light Rain,0,2013-03-12 03:55:00